Weather History for Little Rock AFB, AR

Change the Weather History Date:

Friday, April 19, 2013

  Actual Average Record
Temperature  
Mean Temperature 48 °F -  
Max Temperature 58 °F 74 °F 90 °F (2011)
Min Temperature 39 °F 53 °F 30 °F (1983)
Degree Days  
Heating Degree Days 16    
Moisture  
Dew Point 31 °F    
Average Humidity 51    
Maximum Humidity 88    
Minimum Humidity 32    
Precipitation  
Precipitation 0.00 in - - ()
Sea Level Pressure  
Sea Level Pressure 30.08 in    
Wind  
Wind Speed 11 mph (West)    
Max Wind Speed 18 mph    
Max Gust Speed 25 mph    
Visibility 10 miles    
Events      
Averages and records for this station are not official NWS values.
T = Trace of Precipitation, MM = Missing Value Source: NWS Daily Summary

Daily Weather History Graph

Daily Weather History Graph

Search for Another Location

Airport:

Trip Planner

Search our weather history database for the weather conditions in past years. The results will help you decide how hot, cold, wet, or windy it might be!

Date:

Astronomy

Apr. 19, 2013 Rise Set
Actual Time 6:31 AM CDT 7:44 PM CDT
Civil Twilight 6:05 AM CDT 8:10 PM CDT
Nautical Twilight 5:33 AM CDT 8:42 PM CDT
Astronomical Twilight 5:01 AM CDT 9:14 PM CDT
Moon 1:43 PM CDT (4/19) 2:32 AM CDT (4/19)
Length of Visible Light 14h 05m
Length of Day
13h 13m
First Quarter, 62% of the Moon is Illuminated
Apr 19
First Quarter
Apr 25
Full
May 2
Last Quarter
May 9
New
May 17
First Quarter

Hourly Weather History & Observations

Time (CDT) Temp. Windchill Dew Point Humidity Pressure Visibility Wind Dir Wind Speed Gust Speed Precip Events Conditions
12:58 AM 45.0 °F 41.2 °F 34.5 °F 67% 29.97 in 10.0 mi West 6.9 mph - N/A   Overcast
1:58 AM 45.9 °F 40.8 °F 34.7 °F 65% 29.98 in 10.0 mi West 10.4 mph - N/A   Overcast
2:58 AM 44.8 °F 38.7 °F 30.7 °F 58% 29.98 in 10.0 mi West 12.7 mph 20.7 mph N/A   Overcast
3:58 AM 44.2 °F 38.4 °F 30.6 °F 59% 29.98 in 10.0 mi WNW 11.5 mph 19.6 mph N/A   Overcast
4:58 AM 43.9 °F 37.5 °F 31.6 °F 62% 30.00 in 10.0 mi West 12.7 mph - N/A   Overcast
5:58 AM 41.4 °F 35.2 °F 27.1 °F 57% 30.04 in 10.0 mi West 10.4 mph - N/A   Scattered Clouds
6:58 AM 39.9 °F 35.1 °F 27.7 °F 62% 30.07 in 10.0 mi West 6.9 mph - N/A   Mostly Cloudy
7:58 AM 42.6 °F 36.8 °F 29.5 °F 60% 30.09 in 10.0 mi WSW 10.4 mph - N/A   Scattered Clouds
8:58 AM 44.4 °F 36.9 °F 28.9 °F 55% 30.09 in 10.0 mi West 17.3 mph 21.9 mph N/A   Clear
9:58 AM 45.5 °F 39.6 °F 28.6 °F 52% 30.10 in 10.0 mi West 12.7 mph 19.6 mph N/A   Scattered Clouds
10:58 AM 47.7 °F - 30.4 °F 51% 30.10 in 10.0 mi West 10.4 mph 19.6 mph N/A   Partly Cloudy
11:29 AM 50.0 °F - 30.2 °F 47% 30.10 in 10.0 mi WSW 17.3 mph 23.0 mph N/A   Partly Cloudy
11:58 AM 49.6 °F - 30.6 °F 48% 30.11 in 10.0 mi West 15.0 mph 24.2 mph N/A   Scattered Clouds
12:58 PM 51.4 °F - 30.7 °F 45% 30.11 in 10.0 mi West 13.8 mph 24.2 mph N/A   Partly Cloudy
1:58 PM 53.8 °F - 30.6 °F 41% 30.11 in 10.0 mi West 17.3 mph 25.3 mph N/A   Partly Cloudy
2:12 PM 55.4 °F - 32.0 °F 41% 30.09 in 10.0 mi WNW 12.7 mph 24.2 mph N/A   Clear
2:29 PM 53.6 °F - 30.2 °F 41% 30.09 in 10.0 mi West 13.8 mph 25.3 mph N/A   Clear
2:58 PM 54.9 °F - 29.8 °F 38% 30.10 in 10.0 mi West 18.4 mph 21.9 mph N/A   Clear
3:00 PM 55.4 °F - 32.0 °F 41% 30.08 in 10.0 mi WSW 13.8 mph 21.9 mph N/A   Clear
3:03 PM 55.4 °F - 32.0 °F 41% 30.08 in 10.0 mi WNW 15.0 mph 25.3 mph N/A   Clear
3:04 PM 55.4 °F - 32.0 °F 41% 30.08 in 10.0 mi WNW 15.0 mph 25.3 mph N/A   Clear
3:52 PM 57.2 °F - 32.0 °F 38% 30.08 in 10.0 mi West 16.1 mph 17.3 mph N/A   Clear
3:58 PM 57.0 °F - 30.6 °F 37% 30.09 in 10.0 mi West 12.7 mph 21.9 mph N/A   Clear
4:58 PM 57.6 °F - 28.0 °F 32% 30.08 in 10.0 mi WSW 8.1 mph 21.9 mph N/A   Clear
5:10 PM 57.2 °F - 28.4 °F 33% 30.07 in 10.0 mi WNW 12.7 mph 19.6 mph N/A   Clear
5:58 PM 58.1 °F - 28.9 °F 33% 30.09 in 10.0 mi West 11.5 mph - N/A   Clear
6:58 PM 57.0 °F - 28.8 °F 34% 30.09 in 10.0 mi West 8.1 mph - N/A   Clear
7:58 PM 49.6 °F - 33.3 °F 53% 30.12 in 10.0 mi WSW 6.9 mph - N/A   Clear
8:58 PM 46.2 °F 42.7 °F 34.3 °F 63% 30.14 in 10.0 mi WSW 6.9 mph - N/A   Clear
9:58 PM 45.1 °F - 34.5 °F 66% 30.17 in 10.0 mi Calm Calm - N/A   Clear
10:58 PM 42.4 °F - 36.1 °F 78% 30.17 in 10.0 mi Calm Calm - N/A   Clear
11:58 PM 40.5 °F - 37.0 °F 88% 30.17 in 10.0 mi Calm Calm - N/A   Clear